PCSAT (NO-44)

Last updated on Tue Aug 25 2026 00:03:13 GMT+0000 (Coordinated Universal Time)

1 26931U 01043C 26235.97866662 .00000080 00000+0 60923-4 0 9998 2 26931 67.0496 68.9288 0005649 270.3796 89.6659 14.31977234300157
UTC large
Height (km)
Speed (km/s)
/
Latitude / Longitude
Inclination (degrees)
Orbital Period (minutes)
Azimuth
Elevation
Range (km)
Doppler Factor

Next 0 passes for location: London (51.5072 / 0.1276)

No passes found over London.
PCSAT (NO-44)